ORBCOMM FM03 [-]

Last updated on Fri Dec 29 2023 00:02:53 GMT+0000 (Coordinated Universal Time)

1 25158U 98007B 23361.89717123 .00002054 00000+0 80938-3 0 9999 2 25158 107.9735 114.2337 0045427 108.3337 252.2750 14.31641709347073
UTC large
Height (km)
Speed (km/s)
/
Latitude / Longitude
Inclination (degrees)
Orbital Period (minutes)
Azimuth
Elevation
Range (km)
Doppler Factor

Next 0 passes for location: London (51.5072 / 0.1276)

Sorry there are no passes over London.